Regional Weather Roundup
Issued by NWS

Home | Current Version | Previous Version | Text Only | Print | Product List | Glossary Off
Versions: 1 2 3 4 5 6 7 8 9 10 11 12 13 14 15 16 17 18 19 20 21 22 23 24 25 26 27 28 29 30 31 32 33 34 35 36 37 38 39 40 41 42 43 44 45 46 47 48 49 50

000
ASUS45 KSLC 290310
RWRUT

UTAH REGIONAL WEATHER ROUNDUP
NATIONAL WEATHER SERVICE SALT LAKE CITY UT
800 PM MST WED JAN 28 2015

UTZ001>011-023>025-290400-

NORTHERN UTAH

CITY           SKY/WX    TMP DP  RH WIND       PRES   REMARKS
BRIGHAM CITY   CLEAR     38  35  89 NW5       30.35R WCI  35
HILL AFB       CLOUDY    41  37  86 NW9       30.33R
LOGAN          CLOUDY    39  37  92 CALM      30.36R FOG
OGDEN          PTCLDY    38  37  97 N3        30.33R
PROVO AIRPORT  MOCLDY    41  34  75 NW14      30.32R
SALT LAKE CITY PTCLDY    41  36  82 N5        30.33R
VERNAL         CLOUDY    39  28  64 W5        30.29R
WENDOVER       PTCLDY    41  34  75 CALM      30.33S
HEBER CITY     CLEAR     32  30  93 CALM      30.32R
WEST JORDAN    CLEAR     37  36  93 W3        30.34R

$$

UTZ012>022-026-027-290400-

SOUTHERN/CENTRAL UTAH

CITY           SKY/WX    TMP DP  RH WIND       PRES   REMARKS
BLANDING       PTCLDY    37  30  74 N7        30.34R WCI  32
BRYCE CANYON   CLOUDY    37  33  85 SE7       30.31R WCI  32
CEDAR CITY     MOCLDY    40  30  67 N5        30.26R
DELTA          PTCLDY    40  33  76 N5        30.31R
HANKSVILLE     PTCLDY    43  32  65 CALM      30.28R
MILFORD        PTCLDY    38  30  73 N9        30.28R WCI  31
MOAB/CYNLANDS  CLEAR     37  30  75 SW3       30.25R
PRICE          CLEAR     36  25  64 N7        30.27R WCI  30
ST GEORGE      CLEAR     52  39  62 CALM      30.23S
KANAB          CLOUDY    37  36  93 NE5       30.30R WCI  34

$$

REGIONAL REPORTS     COLORADO/ARIZONA

CITY           SKY/WX    TMP DP  RH WIND       PRES   REMARKS
CRAIG, CO      CLOUDY    35  31  85 CALM      30.31R
GRAND JUNCTION CLOUDY    41  33  73 CALM      30.26R
RIFLE          CLOUDY    41  30  65 CALM      30.28R
MONTROSE       PTCLDY    36  27  69 SE7       30.30R WCI  30
CORTEZ         CLEAR     33  25  72 E7        30.28R WCI  27
PAGE, AZ       NOT AVBL
GRAND CANYON   CLOUDY    37  31  78 CALM      30.28R
KINGMAN        CLOUDY    51  44  77 E6        30.20S
FLAGSTAFF      CLOUDY    38  29  70 CALM      30.28S

$$

REGIONAL REPORTS    NEVADA/IDAHO/WYOMING

CITY           SKY/WX    TMP DP  RH WIND       PRES   REMARKS
LAS VEGAS, NV  CLOUDY    61  43  51 SW7       30.16R
ELY            CLEAR     36  28  73 CALM      30.30R
ELKO           CLEAR     39  32  76 NE3       30.31S
POCATELLO, ID  CLOUDY    33  33 100 N3        30.39R
BURLEY         FOG       35  34  96 E5        30.37R VSB 1/4 WCI  31
EVANSTON, WY   CLOUDY    34  30  85 N5        30.33S WCI  30
ROCK SPRINGS   CLOUDY    35  29  78 SW3       30.31R
KEMMERER       PTCLDY    30  30 100 N6        30.33R WCI  24

$$



USA.gov is the U.S. government's official web portal to all federal, state and local government web resources and services.